FW9984 Weather Reports


time (UTC)temp
F
wind
direction
speed
knots
gust
knots
rain 1hr
in
rain 24hr
in
rain mn
in
humidity
%
barometer
mb
20260507100058 71 191 1.7 4.3 0.00 0.00 0.00 44 1012.5
20260507094556 72 243 1.7 4.3 0.00 0.00 0.00 50 1012.5
20260507093106 70 93 0.9 3.5 0.00 0.00 0.00 55 1012.7
20260507091556 70 158 1.7 5.2 0.00 0.00 0.00 54 1012.8
20260507090059 68 0 0.9 4.3 0.00 0.00 0.00 55 1012.6
20260507084557 67 170 2.6 5.2 0.00 0.00 0.00 60 1012.6
20260507083101 64 148 0.9 2.6 0.00 0.00 0.00 66 1012.8
20260507081558 63 0 0.0 1.7 0.00 0.00 0.00 66 1012.7
20260507080114 63 0 0.0 3.5 0.00 0.00 0.00 69 1012.4
20260507074557 62 201 0.0 1.7 0.00 0.00 0.00 70 1012.5
20260507073056 61 208 0.0 3.5 0.00 0.00 0.00 71 1012.5
20260507071610 61 224 1.7 3.5 0.00 0.00 0.00 71 1012.3
20260507070056 60 0 0.0 2.6 0.00 0.00 0.00 73 1012.1
20260507064556 60 188 0.0 1.7 0.00 0.00 0.00 73 1012.0
20260507063057 59 253 0.0 2.6 0.00 0.00 0.00 75 1012.0
20260507061600 59 194 0.0 1.7 0.00 0.00 0.00 75 1012.0
20260507060058 58 0 0.0 1.7 0.00 0.00 0.00 76 1011.9
20260507054602 58 0 0.0 0.9 0.00 0.00 0.00 78 1011.8
20260507053127 58 105 0.0 1.7 0.00 0.00 0.00 76 1011.7
20260507051605 58 221 0.0 4.3 0.00 0.00 0.00 77 1011.5
20260507050104 58 196 0.9 4.3 0.00 0.00 0.00 77 1011.5
20260507044559 58 179 2.6 7.0 0.00 0.00 0.00 77 1011.3
20260507043057 57 181 1.7 3.5 0.00 0.00 0.00 78 1011.1
20260507041558 57 0 0.0 0.0 0.00 0.00 0.00 79 1011.0
20260507040115 57 0 0.0 2.6 0.00 0.00 0.00 78 1010.9
20260507034558 57 208 0.9 2.6 0.00 0.00 0.00 79 1010.9
20260507033100 57 0 0.9 2.6 0.00 0.00 0.00 79 1010.9
20260507031558 58 202 0.0 1.7 0.00 0.00 0.00 77 1010.9
20260507030058 58 196 0.9 4.3 0.00 0.00 0.00 77 1011.0
20260507024604 57 169 0.0 1.7 0.00 0.00 0.00 78 1010.9
20260507023057 58 214 0.9 4.3 0.00 0.00 0.00 76 1010.8
20260507021555 58 193 0.9 2.6 0.00 0.00 0.00 76 1010.7
20260507020058 58 158 0.0 3.5 0.00 0.00 0.00 77 1010.6
20260507014610 58 175 0.9 4.3 0.00 0.00 0.00 77 1010.8
20260507013057 58 264 0.9 2.6 0.00 0.00 0.00 77 1010.7
20260507011604 59 229 0.9 3.5 0.00 0.00 0.00 76 1010.7
20260507010109 59 189 0.9 3.5 0.00 0.00 0.00 75 1010.6
20260507004611 60 200 0.9 4.3 0.00 0.00 0.00 74 1010.8
20260507003102 60 146 1.7 5.2 0.00 0.00 0.00 73 1010.7
20260507001557 60 214 1.7 5.2 0.00 0.00 0.00 73 1010.7
20260507000056 60 192 3.5 7.0 0.00 0.00 0.00 74 1010.9
20260506234559 60 183 0.9 4.3 0.00 0.00 0.00 74 1011.0
20260506233058 60 201 0.9 5.2 0.00 0.00 0.00 73 1011.0
20260506231601 61 195 1.7 5.2 0.00 0.00 0.00 72 1010.9
20260506230059 61 155 2.6 7.0 0.00 0.00 0.00 71 1010.9
20260506224600 61 193 0.9 5.2 0.00 0.00 0.00 71 1010.8
20260506223058 62 0 0.9 2.6 0.00 0.00 0.00 71 1010.7
20260506221559 62 217 0.0 5.2 0.00 0.00 0.00 70 1010.6
20260506220056 62 0 0.0 5.2 0.00 0.00 0.00 70 1010.4
20260506214604 62 233 2.6 8.7 0.00 0.00 0.00 70 1010.3
20260506213059 62 229 1.7 5.2 0.00 0.00 0.00 69 1010.5
20260506211605 62 181 0.0 0.9 0.00 0.00 0.00 69 1010.2
20260506210057 62 0 0.0 2.6 0.00 0.00 0.00 69 1010.1
20260506204556 63 205 1.7 5.2 0.00 0.00 0.00 68 1010.1
20260506203057 63 197 1.7 6.1 0.00 0.00 0.00 68 1010.0
20260506201557 63 192 0.9 7.0 0.00 0.00 0.00 68 1009.9
20260506200106 62 262 0.9 4.3 0.00 0.00 0.00 68 1009.9
20260506194606 62 196 0.0 2.6 0.00 0.00 0.00 68 1009.9
20260506193059 62 0 0.9 2.6 0.00 0.00 0.00 68 1009.7
20260506191608 62 0 0.0 1.7 0.00 0.00 0.00 68 1009.5
20260506190058 63 158 0.0 7.0 0.00 0.00 0.00 67 1009.2
20260506184558 63 201 0.0 5.2 0.00 0.00 0.00 67 1009.1
20260506183120 63 124 1.7 5.2 0.00 0.00 0.00 66 1008.9
20260506181602 63 0 0.0 3.5 0.00 0.00 0.00 67 1008.8
20260506180114 64 221 2.6 7.0 0.00 0.00 0.00 66 1008.8
20260506174556 65 217 0.9 6.1 0.00 0.00 0.00 65 1008.6
20260506173131 65 263 1.7 6.1 0.00 0.00 0.00 65 1008.6
20260506171557 66 219 0.9 2.6 0.00 0.00 0.00 64 1008.6
20260506170058 66 174 0.9 7.0 0.00 0.00 0.00 64 1008.5
20260506164601 66 172 1.7 12.2 0.00 0.00 0.00 64 1008.6
20260506163103 66 126 1.7 6.1 0.00 0.00 0.00 64 1008.9
20260506161559 67 187 4.3 13.0 0.00 0.00 0.00 63 1009.0
20260506160056 68 227 3.5 10.4 0.00 0.00 0.00 61 1009.4
20260506154559 69 182 3.5 8.7 0.00 0.00 0.00 60 1009.2
20260506153058 68 192 3.5 10.4 0.00 0.00 0.00 62 1009.4
20260506151558 68 0 0.9 8.7 0.00 0.00 0.00 62 1009.4
20260506150100 69 218 3.5 10.4 0.00 0.00 0.00 60 1009.5
20260506144607 70 192 6.1 11.3 0.00 0.00 0.00 58 1009.5
20260506143057 70 214 7.0 13.0 0.00 0.00 0.00 58 1009.6
20260506141556 71 231 3.5 13.0 0.00 0.00 0.00 57 1009.6
20260506140058 70 175 4.3 15.6 0.00 0.00 0.00 57 1009.5
20260506134604 70 139 1.7 11.3 0.00 0.00 0.00 57 1009.8
20260506133101 71 217 3.5 10.4 0.00 0.00 0.00 56 1009.7
20260506131557 72 205 6.1 13.0 0.00 0.00 0.00 53 1009.6
20260506130059 72 215 4.3 12.2 0.00 0.00 0.00 55 1009.8
20260506124557 72 192 4.3 10.4 0.00 0.00 0.00 53 1009.7
20260506123056 72 117 1.7 13.9 0.00 0.00 0.00 54 1009.7
20260506121558 72 135 2.6 8.7 0.00 0.00 0.00 54 1009.9
20260506120058 71 163 3.5 13.0 0.00 0.00 0.00 54 1009.7
20260506114557 71 131 4.3 10.4 0.00 0.00 0.00 55 1009.7
20260506113100 72 134 2.6 11.3 0.00 0.00 0.00 53 1010.0
20260506111559 72 166 3.5 9.6 0.00 0.00 0.00 54 1010.2
20260506110058 70 207 2.6 15.6 0.00 0.00 0.00 58 1010.4
20260506104601 69 218 3.5 7.8 0.00 0.00 0.00 58 1010.7
20260506103056 69 264 2.6 9.6 0.00 0.00 0.00 59 1010.7
20260506101556 68 200 2.6 7.8 0.00 0.00 0.00 59 1010.9